When you browse on this site, cookies collect data to enhance your experience and personalize the content and advertising you see.
Visit our Privacy Policy to learn more. By continuing to use the site, you agree to this use of cookies and data.
  • En España
  • Lista de países
  • Para 7 días
  • Temperatura del agua
  • El tiempo en el mapa
  • Informadores
  • user-avatar
    Iniciar sesión

    Tiempo cada hora Encamp

    Hoy, 15 Diciembre, Domingo

    Tiempo Temperatura Precipitaciones Viento Presión Humedad
    00:00 +2°C° 0 mm 1 mps 618 mmHg 84%
    01:00 +2°C° 0 mm 1 mps 618 mmHg 81%
    02:00 +2°C° 0 mm 1 mps 618 mmHg 79%
    03:00 +2°C° 0 mm 1 mps 618 mmHg 77%
    04:00 +2°C° 0 mm 1 mps 618 mmHg 75%
    05:00 +2°C° 0 mm 1 mps 618 mmHg 73%
    06:00 +2°C° 0 mm 1 mps 618 mmHg 71%
    07:00 +3°C° 0 mm 1 mps 618 mmHg 70%
    08:00 +4°C° 0 mm 1 mps 619 mmHg 69%
    09:00 +5°C° 0 mm 1 mps 620 mmHg 69%
    10:00 +6°C° 0 mm 1 mps 620 mmHg 69%
    11:00 +6°C° 0 mm 2 mps 620 mmHg 69%
    12:00 +7°C° 0 mm 2 mps 620 mmHg 69%
    13:00 +6°C° 0 mm 2 mps 619 mmHg 71%
    14:00 +6°C° 0 mm 2 mps 619 mmHg 74%
    15:00 +5°C° 0 mm 2 mps 618 mmHg 76%
    16:00 +4°C° 0 mm 2 mps 618 mmHg 78%
    17:00 +3°C° 0 mm 2 mps 617 mmHg 80%
    18:00 +1°C° 0 mm 2 mps 617 mmHg 81%
    19:00 +1°C° 0 mm 2 mps 617 mmHg 79%
    20:00 +1°C° 0 mm 2 mps 617 mmHg 76%
    21:00 +1°C° 0 mm 2 mps 617 mmHg 73%
    22:00 +1°C° 0 mm 2 mps 616 mmHg 73%
    23:00 +1°C° 0 mm 2 mps 616 mmHg 73%

    Mañana, 16 Diciembre, Lunes

    Tiempo Temperatura Precipitaciones Viento Presión Humedad
    00:00 0°C° 0 mm 3 mps 616 mmHg 72%
    01:00 0°C° 0 mm 3 mps 616 mmHg 75%
    02:00 0°C° 0 mm 3 mps 616 mmHg 77%
    03:00 0°C° 0 mm 3 mps 616 mmHg 79%
    04:00 0°C° 0 mm 3 mps 615 mmHg 79%
    05:00 0°C° 0 mm 3 mps 615 mmHg 80%
    06:00 +1°C° 0 mm 3 mps 615 mmHg 80%
    07:00 +1°C° 0 mm 3 mps 615 mmHg 79%
    08:00 +2°C° 0 mm 3 mps 615 mmHg 77%
    09:00 +2°C° 0 mm 3 mps 615 mmHg 76%
    10:00 +3°C° 0 mm 4 mps 615 mmHg 74%
    11:00 +4°C° 0 mm 4 mps 615 mmHg 73%
    12:00 +5°C° 0 mm 4 mps 615 mmHg 71%
    13:00 +5°C° 0 mm 4 mps 615 mmHg 75%
    14:00 +5°C° 0 mm 4 mps 614 mmHg 80%
    15:00 +4°C° 0 mm 4 mps 613 mmHg 84%
    16:00 +3°C° 0 mm 4 mps 613 mmHg 85%
    17:00 +3°C° 0 mm 4 mps 612 mmHg 85%
    18:00 +1°C° 0 mm 4 mps 612 mmHg 85%
    19:00 +1°C° 0 mm 4 mps 612 mmHg 84%
    20:00 0°C° 0 mm 4 mps 612 mmHg 84%
    21:00 0°C° 0 mm 4 mps 612 mmHg 83%
    22:00 0°C° 0 mm 4 mps 611 mmHg 83%
    23:00 0°C° 0 mm 3 mps 611 mmHg 83%

    Pasado mañana, 17 Diciembre, Martes

    Tiempo Temperatura Precipitaciones Viento Presión Humedad
    00:00 0°C° 0 mm 3 mps 611 mmHg 83%
    01:00 0°C° 0 mm 3 mps 611 mmHg 84%
    02:00 0°C° 0 mm 3 mps 611 mmHg 85%
    03:00 +1°C° 0 mm 3 mps 611 mmHg 86%
    04:00 +1°C° 0 mm 3 mps 611 mmHg 88%
    05:00 +1°C° 0 mm 3 mps 610 mmHg 89%
    06:00 +1°C° 0 mm 3 mps 610 mmHg 91%
    07:00 +1°C° 0.1 mm 3 mps 611 mmHg 90%
    08:00 +2°C° 0.1 mm 3 mps 611 mmHg 89%
    09:00 +2°C° 0.1 mm 3 mps 612 mmHg 89%
    10:00 +3°C° 0.7 mm 3 mps 612 mmHg 88%
    11:00 +3°C° 0.7 mm 3 mps 613 mmHg 87%
    12:00 +3°C° 0.7 mm 3 mps 613 mmHg 86%
    13:00 +3°C° 0.8 mm 3 mps 613 mmHg 89%
    14:00 +3°C° 0.8 mm 2 mps 613 mmHg 91%
    15:00 +3°C° 0.8 mm 2 mps 614 mmHg 93%
    16:00 +3°C° 0.8 mm 1 mps 614 mmHg 94%
    17:00 +3°C° 0.8 mm 1 mps 614 mmHg 96%
    18:00 +3°C° 0.8 mm 1 mps 615 mmHg 97%
    19:00 +2°C° 0.2 mm 1 mps 615 mmHg 97%
    20:00 +2°C° 0.2 mm 1 mps 615 mmHg 97%
    21:00 +2°C° 0.2 mm 1 mps 616 mmHg 97%
    22:00 +2°C° 0.6 mm 1 mps 616 mmHg 97%
    23:00 +2°C° 0.6 mm 1 mps 616 mmHg 97%

    18 Diciembre, Miércoles

    Tiempo Temperatura Precipitaciones Viento Presión Humedad
    00:00 +2°C° 0.6 mm 1 mps 616 mmHg 97%
    01:00 +2°C° 0.3 mm 1 mps 616 mmHg 97%
    02:00 +2°C° 0.3 mm 1 mps 616 mmHg 97%
    03:00 +2°C° 0.3 mm 1 mps 616 mmHg 97%
    04:00 +2°C° 0.3 mm 1 mps 616 mmHg 97%
    05:00 +2°C° 0.3 mm 1 mps 617 mmHg 97%
    06:00 +2°C° 0.3 mm 1 mps 617 mmHg 97%
    07:00 +2°C° 0 mm 1 mps 617 mmHg 95%
    08:00 +3°C° 0 mm 1 mps 618 mmHg 93%
    09:00 +3°C° 0 mm 1 mps 618 mmHg 91%
    10:00 +4°C° 0 mm 1 mps 618 mmHg 89%
    11:00 +5°C° 0 mm 1 mps 618 mmHg 87%
    12:00 +5°C° 0 mm 2 mps 618 mmHg 84%
    13:00 +5°C° 0 mm 2 mps 618 mmHg 85%
    14:00 +4°C° 0 mm 2 mps 618 mmHg 86%
    15:00 +4°C° 0 mm 2 mps 618 mmHg 87%
    16:00 +3°C° 0 mm 2 mps 618 mmHg 89%
    17:00 +3°C° 0 mm 1 mps 617 mmHg 91%
    18:00 +1°C° 0 mm 1 mps 617 mmHg 93%
    19:00 +1°C° 0 mm 1 mps 617 mmHg 91%
    20:00 -1°C° 0 mm 2 mps 617 mmHg 90%
    21:00 -1°C° 0 mm 2 mps 617 mmHg 88%
    22:00 -1°C° 0 mm 2 mps 617 mmHg 88%
    23:00 -1°C° 0 mm 2 mps 617 mmHg 88%

    19 Diciembre, Jueves

    Tiempo Temperatura Precipitaciones Viento Presión Humedad
    00:00 -2°C° 0 mm 2 mps 617 mmHg 88%
    01:00 -1°C° 0 mm 2 mps 616 mmHg 88%
    02:00 -1°C° 0 mm 2 mps 616 mmHg 88%
    03:00 +1°C° 0 mm 2 mps 616 mmHg 88%
    04:00 +1°C° 0.2 mm 2 mps 616 mmHg 90%
    05:00 +2°C° 0.2 mm 2 mps 616 mmHg 91%
    06:00 +2°C° 0.2 mm 2 mps 616 mmHg 93%
    07:00 +2°C° 1.7 mm 2 mps 615 mmHg 93%
    08:00 +2°C° 1.7 mm 2 mps 615 mmHg 94%
    09:00 +1°C° 1.7 mm 3 mps 615 mmHg 94%
    10:00 +2°C° 0.9 mm 3 mps 615 mmHg 94%
    11:00 +2°C° 0.9 mm 3 mps 614 mmHg 93%
    12:00 +1°C° 0.9 mm 4 mps 614 mmHg 93%
    13:00 +2°C° 1 mm 3 mps 614 mmHg 94%
    14:00 +2°C° 1 mm 3 mps 613 mmHg 95%
    15:00 +1°C° 1 mm 3 mps 613 mmHg 95%
    16:00 +1°C° 0.6 mm 2 mps 613 mmHg 96%
    17:00 +1°C° 0.6 mm 2 mps 613 mmHg 96%
    18:00 -1°C° 0.6 mm 2 mps 613 mmHg 96%
    19:00 -2°C° 0 mm 2 mps 613 mmHg 95%
    20:00 -2°C° 0 mm 2 mps 612 mmHg 94%
    21:00 -3°C° 0 mm 2 mps 612 mmHg 93%
    22:00 -3°C° 0 mm 2 mps 612 mmHg 93%
    23:00 -4°C° 0 mm 3 mps 612 mmHg 92%

    20 Diciembre, Viernes

    Tiempo Temperatura Precipitaciones Viento Presión Humedad
    00:00 -4°C° 0 mm 3 mps 611 mmHg 91%
    01:00 -4°C° 1 mm 3 mps 610 mmHg 92%
    02:00 -3°C° 1 mm 4 mps 609 mmHg 93%
    03:00 -3°C° 1 mm 4 mps 607 mmHg 93%
    04:00 -2°C° 3.6 mm 4 mps 607 mmHg 94%
    05:00 -2°C° 3.6 mm 4 mps 606 mmHg 95%
    06:00 -1°C° 3.6 mm 4 mps 605 mmHg 95%
    07:00 0°C° 0.6 mm 3 mps 605 mmHg 95%
    08:00 +1°C° 0.6 mm 3 mps 605 mmHg 95%
    09:00 +1°C° 0.6 mm 3 mps 605 mmHg 95%
    10:00 +2°C° 0.1 mm 2 mps 605 mmHg 96%
    11:00 +2°C° 0.1 mm 2 mps 605 mmHg 97%
    12:00 +3°C° 0.1 mm 1 mps 605 mmHg 97%
    13:00 +2°C° 0.1 mm 2 mps 606 mmHg 96%
    14:00 +2°C° 0.1 mm 2 mps 606 mmHg 95%
    15:00 +2°C° 0.1 mm 2 mps 607 mmHg 94%
    16:00 +1°C° 0 mm 2 mps 607 mmHg 94%
    17:00 -2°C° 0 mm 3 mps 608 mmHg 94%
    18:00 -4°C° 0 mm 3 mps 608 mmHg 93%
    19:00 -4°C° 0.1 mm 3 mps 609 mmHg 93%
    20:00 -4°C° 0.1 mm 3 mps 610 mmHg 93%
    21:00 -4°C° 0.1 mm 3 mps 610 mmHg 93%
    22:00 -4°C° 0.2 mm 3 mps 611 mmHg 93%
    23:00 -3°C° 0.2 mm 2 mps 611 mmHg 93%
    Mostrar más